Time,TemperatureF,DewpointF,PressureIn,WindDirection,WindDirectionDegrees,WindSpeedMPH,WindSpeedGustMPH,Humidity,HourlyPrecipIn,Conditions,Clouds,dailyrainin,SoftwareType,DateUTC
2013-07-05 00:01:00,74.0,70.2,30.15,SSE,160,4.0,7.0,88,0.00,,,0.05,Wunderground v.1.15,2013-07-05 04:01:00,
2013-07-05 00:02:00,74.0,70.2,30.15,SSE,148,4.0,8.0,88,0.00,,,0.05,Wunderground v.1.15,2013-07-05 04:02:00,
2013-07-05 00:04:00,74.0,70.2,30.15,SE,146,4.0,8.0,88,0.00,,,0.05,Wunderground v.1.15,2013-07-05 04:04:00,
2013-07-05 00:06:00,74.0,70.2,30.15,SSE,156,4.0,8.0,88,0.00,,,0.05,Wunderground v.1.15,2013-07-05 04:06:00,
2013-07-05 00:08:00,74.1,70.3,30.15,SSE,156,4.0,8.0,88,0.00,,,0.05,Wunderground v.1.15,2013-07-05 04:08:00,
2013-07-05 00:14:00,74.2,70.1,30.16,South,183,3.0,8.0,87,0.00,,,0.05,Wunderground v.1.15,2013-07-05 04:14:00,
2013-07-05 00:20:00,74.5,70.0,30.16,SSE,158,3.0,8.0,86,0.00,,,0.05,Wunderground v.1.15,2013-07-05 04:20:00,
2013-07-05 00:25:00,74.7,70.2,30.15,South,170,3.0,8.0,86,0.00,,,0.05,Wunderground v.1.15,2013-07-05 04:25:00,
2013-07-05 00:31:00,74.8,70.3,30.16,South,181,2.0,8.0,86,0.00,,,0.05,Wunderground v.1.15,2013-07-05 04:31:00,
2013-07-05 00:37:00,74.8,70.3,30.16,SSW,210,2.0,8.0,86,0.00,,,0.05,Wunderground v.1.15,2013-07-05 04:37:00,
2013-07-05 00:43:00,74.7,70.2,30.15,SSE,160,2.0,8.0,86,0.00,,,0.05,Wunderground v.1.15,2013-07-05 04:43:00,
2013-07-05 00:49:00,74.6,70.1,30.15,SSE,160,1.0,8.0,86,0.00,,,0.05,Wunderground v.1.15,2013-07-05 04:49:00,
2013-07-05 00:55:00,74.5,70.4,30.15,SSE,168,1.0,8.0,87,0.00,,,0.00,Wunderground v.1.15,2013-07-05 04:55:00,
2013-07-05 01:01:00,74.4,69.6,30.15,SW,231,2.0,8.0,85,0.00,,,0.00,Wunderground v.1.15,2013-07-05 05:01:00,
2013-07-05 01:06:00,74.4,69.6,30.15,SSW,205,2.0,8.0,85,0.00,,,0.00,Wunderground v.1.15,2013-07-05 05:06:00,
2013-07-05 01:11:00,74.2,69.1,30.15,SW,222,2.0,8.0,84,0.00,,,0.00,Wunderground v.1.15,2013-07-05 05:11:00,
2013-07-05 01:17:00,74.0,69.2,30.15,SW,226,3.0,8.0,85,0.00,,,0.00,Wunderground v.1.15,2013-07-05 05:17:00,
2013-07-05 01:23:00,73.8,69.0,30.15,SW,231,2.0,8.0,85,0.00,,,0.00,Wunderground v.1.15,2013-07-05 05:23:00,
2013-07-05 01:25:00,73.6,68.8,30.15,SW,218,2.0,8.0,85,0.00,,,0.00,Wunderground v.1.15,2013-07-05 05:25:00,
2013-07-05 01:31:00,73.4,69.0,30.15,SW,218,1.0,8.0,86,0.00,,,0.00,Wunderground v.1.15,2013-07-05 05:31:00,
2013-07-05 01:37:00,73.0,68.9,30.15,SSE,151,1.0,8.0,87,0.00,,,0.00,Wunderground v.1.15,2013-07-05 05:37:00,
2013-07-05 01:43:00,72.8,68.7,30.15,SSE,151,1.0,8.0,87,0.00,,,0.00,Wunderground v.1.15,2013-07-05 05:43:00,
2013-07-05 01:48:00,72.7,68.9,30.15,SSE,150,0.0,8.0,88,0.00,,,0.00,Wunderground v.1.15,2013-07-05 05:48:00,
2013-07-05 01:53:00,72.5,68.7,30.15,SSE,150,0.0,8.0,88,0.00,,,0.00,Wunderground v.1.15,2013-07-05 05:53:00,
2013-07-05 01:59:00,72.3,68.9,30.15,WSW,241,0.0,8.0,89,0.00,,,0.00,Wunderground v.1.15,2013-07-05 05:59:00,
2013-07-05 02:04:00,72.0,68.6,30.15,West,260,1.0,8.0,89,0.00,,,0.00,Wunderground v.1.15,2013-07-05 06:04:00,
2013-07-05 02:10:00,71.6,68.5,30.15,West,260,1.0,8.0,90,0.00,,,0.00,Wunderground v.1.15,2013-07-05 06:10:00,
2013-07-05 02:16:00,71.5,68.7,30.15,West,260,1.0,8.0,91,0.00,,,0.00,Wunderground v.1.15,2013-07-05 06:16:00,
2013-07-05 02:21:00,71.5,68.7,30.15,West,260,0.0,8.0,91,0.00,,,0.00,Wunderground v.1.15,2013-07-05 06:21:00,
2013-07-05 02:27:00,71.4,68.6,30.15,West,260,0.0,8.0,91,0.00,,,0.00,Wunderground v.1.15,2013-07-05 06:27:00,
2013-07-05 02:32:00,71.6,68.5,30.15,North,10,1.0,8.0,90,0.00,,,0.00,Wunderground v.1.15,2013-07-05 06:32:00,
2013-07-05 02:38:00,72.1,69.0,30.15,NNE,25,1.0,8.0,90,0.00,,,0.00,Wunderground v.1.15,2013-07-05 06:38:00,
2013-07-05 02:44:00,72.2,69.1,30.15,East,82,1.0,8.0,90,0.00,,,0.00,Wunderground v.1.15,2013-07-05 06:44:00,
2013-07-05 02:50:00,72.2,69.1,30.15,ENE,74,1.0,8.0,90,0.00,,,0.00,Wunderground v.1.15,2013-07-05 06:50:00,
2013-07-05 02:56:00,72.1,69.0,30.14,ESE,102,1.0,8.0,90,0.00,,,0.00,Wunderground v.1.15,2013-07-05 06:56:00,
2013-07-05 03:01:00,72.0,68.9,30.15,SE,135,1.0,8.0,90,0.00,,,0.00,Wunderground v.1.15,2013-07-05 07:01:00,
2013-07-05 03:07:00,71.8,68.7,30.14,ESE,113,1.0,8.0,90,0.00,,,0.00,Wunderground v.1.15,2013-07-05 07:07:00,
2013-07-05 03:13:00,71.7,68.9,30.14,ESE,113,1.0,8.0,91,0.00,,,0.00,Wunderground v.1.15,2013-07-05 07:13:00,
2013-07-05 03:19:00,71.5,68.7,30.14,ESE,113,0.0,8.0,91,0.00,,,0.00,Wunderground v.1.15,2013-07-05 07:19:00,
2013-07-05 03:25:00,71.4,68.6,30.14,ESE,117,1.0,8.0,91,0.00,,,0.00,Wunderground v.1.15,2013-07-05 07:25:00,
2013-07-05 03:31:00,71.3,68.5,30.14,SE,142,2.0,8.0,91,0.00,,,0.00,Wunderground v.1.15,2013-07-05 07:31:00,
2013-07-05 03:36:00,71.3,68.5,30.14,ESE,118,2.0,8.0,91,0.00,,,0.00,Wunderground v.1.15,2013-07-05 07:36:00,
2013-07-05 03:42:00,71.2,68.4,30.14,SE,124,3.0,8.0,91,0.00,,,0.00,Wunderground v.1.15,2013-07-05 07:42:00,
2013-07-05 03:48:00,71.1,68.3,30.14,ESE,122,2.0,8.0,91,0.00,,,0.00,Wunderground v.1.15,2013-07-05 07:48:00,
2013-07-05 03:53:00,71.0,68.2,30.14,ESE,122,1.0,8.0,91,0.00,,,0.00,Wunderground v.1.15,2013-07-05 07:53:00,
2013-07-05 03:59:00,70.8,68.0,30.14,ESE,122,0.0,8.0,91,0.00,,,0.00,Wunderground v.1.15,2013-07-05 07:59:00,
2013-07-05 04:04:00,70.7,67.9,30.14,ESE,122,0.0,8.0,91,0.00,,,0.00,Wunderground v.1.15,2013-07-05 08:04:00,
2013-07-05 04:10:00,70.6,67.8,30.14,ESE,122,0.0,8.0,91,0.00,,,0.00,Wunderground v.1.15,2013-07-05 08:10:00,
2013-07-05 04:16:00,70.5,67.7,30.14,ESE,122,0.0,8.0,91,0.00,,,0.00,Wunderground v.1.15,2013-07-05 08:16:00,
2013-07-05 04:22:00,70.3,67.9,30.14,ESE,122,0.0,8.0,92,0.00,,,0.00,Wunderground v.1.15,2013-07-05 08:22:00,
2013-07-05 04:27:00,70.1,67.7,30.14,ESE,122,0.0,8.0,92,0.00,,,0.00,Wunderground v.1.15,2013-07-05 08:27:00,
2013-07-05 04:33:00,70.1,67.7,30.14,ESE,122,0.0,8.0,92,0.00,,,0.00,Wunderground v.1.15,2013-07-05 08:33:00,
2013-07-05 04:39:00,69.9,67.5,30.14,ESE,122,0.0,8.0,92,0.00,,,0.00,Wunderground v.1.15,2013-07-05 08:39:00,
2013-07-05 04:45:00,69.8,67.1,30.14,ESE,122,0.0,8.0,91,0.00,,,0.00,Wunderground v.1.15,2013-07-05 08:45:00,
2013-07-05 04:51:00,69.6,66.9,30.13,ESE,122,0.0,8.0,91,0.00,,,0.00,Wunderground v.1.15,2013-07-05 08:51:00,
2013-07-05 04:59:00,69.3,66.9,30.13,ESE,122,0.0,8.0,92,0.00,,,0.00,Wunderground v.1.15,2013-07-05 08:59:00,
2013-07-05 05:04:00,69.1,66.4,30.14,ESE,122,0.0,8.0,91,0.00,,,0.00,Wunderground v.1.15,2013-07-05 09:04:00,
2013-07-05 05:11:00,68.8,66.4,30.14,ESE,122,0.0,8.0,92,0.00,,,0.00,Wunderground v.1.15,2013-07-05 09:11:00,
2013-07-05 05:17:00,68.7,66.3,30.14,ESE,122,0.0,8.0,92,0.00,,,0.00,Wunderground v.1.15,2013-07-05 09:17:00,
2013-07-05 05:24:00,68.5,66.1,30.14,ESE,122,0.0,8.0,92,0.00,,,0.00,Wunderground v.1.15,2013-07-05 09:24:00,
2013-07-05 05:30:00,68.4,66.0,30.14,ESE,122,0.0,8.0,92,0.00,,,0.00,Wunderground v.1.15,2013-07-05 09:30:00,
2013-07-05 05:35:00,68.3,66.2,30.14,ESE,122,0.0,8.0,93,0.00,,,0.00,Wunderground v.1.15,2013-07-05 09:35:00,
2013-07-05 05:42:00,68.2,66.1,30.14,ESE,122,0.0,8.0,93,0.00,,,0.00,Wunderground v.1.15,2013-07-05 09:42:00,
2013-07-05 05:48:00,68.1,66.0,30.14,ESE,122,0.0,8.0,93,0.00,,,0.00,Wunderground v.1.15,2013-07-05 09:48:00,
2013-07-05 05:54:00,67.9,65.8,30.14,ESE,122,0.0,8.0,93,0.00,,,0.00,Wunderground v.1.15,2013-07-05 09:54:00,
2013-07-05 06:01:00,67.7,65.6,30.15,ESE,122,0.0,8.0,93,0.00,,,0.00,Wunderground v.1.15,2013-07-05 10:01:00,
2013-07-05 06:07:00,67.6,65.5,30.14,ESE,122,0.0,8.0,93,0.00,,,0.00,Wunderground v.1.15,2013-07-05 10:07:00,
2013-07-05 06:12:00,67.7,65.6,30.14,ESE,122,0.0,8.0,93,0.00,,,0.00,Wunderground v.1.15,2013-07-05 10:12:00,
2013-07-05 06:18:00,67.7,65.9,30.15,ESE,122,1.0,8.0,94,0.00,,,0.00,Wunderground v.1.15,2013-07-05 10:18:00,
2013-07-05 06:24:00,67.7,65.9,30.15,ESE,122,0.0,8.0,94,0.00,,,0.01,Wunderground v.1.15,2013-07-05 10:24:00,
2013-07-05 06:30:00,67.8,66.0,30.15,ESE,122,0.0,8.0,94,0.00,,,0.01,Wunderground v.1.15,2013-07-05 10:30:00,
2013-07-05 06:36:00,68.1,66.3,30.15,ESE,122,0.0,8.0,94,0.00,,,0.01,Wunderground v.1.15,2013-07-05 10:36:00,
2013-07-05 06:42:00,68.7,66.9,30.15,ESE,122,0.0,8.0,94,0.00,,,0.01,Wunderground v.1.15,2013-07-05 10:42:00,
2013-07-05 06:49:00,69.3,67.2,30.15,ESE,122,0.0,8.0,93,0.00,,,0.01,Wunderground v.1.15,2013-07-05 10:49:00,
2013-07-05 06:55:00,69.8,67.7,30.15,ESE,122,0.0,8.0,93,0.00,,,0.01,Wunderground v.1.15,2013-07-05 10:55:00,
2013-07-05 07:02:00,70.2,67.8,30.15,ESE,122,0.0,8.0,92,0.00,,,0.01,Wunderground v.1.15,2013-07-05 11:02:00,
2013-07-05 07:08:00,70.4,68.0,30.15,ESE,122,1.0,8.0,92,0.00,,,0.01,Wunderground v.1.15,2013-07-05 11:08:00,
2013-07-05 07:15:00,70.7,68.3,30.15,ESE,117,1.0,8.0,92,0.00,,,0.01,Wunderground v.1.15,2013-07-05 11:15:00,
2013-07-05 07:21:00,71.1,68.3,30.15,ESE,117,0.0,8.0,91,0.00,,,0.01,Wunderground v.1.15,2013-07-05 11:21:00,
2013-07-05 07:26:00,71.4,68.3,30.15,SSW,203,0.0,8.0,90,0.00,,,0.01,Wunderground v.1.15,2013-07-05 11:26:00,
2013-07-05 07:32:00,71.4,68.3,30.15,SSW,203,1.0,8.0,90,0.00,,,0.01,Wunderground v.1.15,2013-07-05 11:32:00,
2013-07-05 07:37:00,71.6,68.5,30.15,SSW,203,1.0,8.0,90,0.00,,,0.01,Wunderground v.1.15,2013-07-05 11:37:00,
2013-07-05 07:43:00,72.0,68.9,30.16,SSW,203,0.0,8.0,90,0.00,,,0.01,Wunderground v.1.15,2013-07-05 11:43:00,
2013-07-05 07:48:00,72.6,68.8,30.16,SSW,203,0.0,8.0,88,0.00,,,0.01,Wunderground v.1.15,2013-07-05 11:48:00,
2013-07-05 07:54:00,73.2,69.1,30.16,SSW,203,0.0,8.0,87,0.00,,,0.01,Wunderground v.1.15,2013-07-05 11:54:00,
2013-07-05 07:59:00,74.3,69.5,30.16,South,190,0.0,8.0,85,0.00,,,0.01,Wunderground v.1.15,2013-07-05 11:59:00,
2013-07-05 08:05:00,75.0,69.5,30.16,SSE,162,1.0,8.0,83,0.00,,,0.01,Wunderground v.1.15,2013-07-05 12:05:00,
2013-07-05 08:11:00,75.4,69.5,30.16,SE,136,2.0,8.0,82,0.00,,,0.01,Wunderground v.1.15,2013-07-05 12:11:00,
2013-07-05 08:17:00,76.0,69.4,30.16,SSE,166,1.0,8.0,80,0.00,,,0.01,Wunderground v.1.15,2013-07-05 12:17:00,
2013-07-05 08:23:00,76.0,69.4,30.16,SSE,162,2.0,8.0,80,0.00,,,0.01,Wunderground v.1.15,2013-07-05 12:23:00,
2013-07-05 08:28:00,76.0,69.7,30.16,SE,137,3.0,8.0,81,0.00,,,0.01,Wunderground v.1.15,2013-07-05 12:28:00,
2013-07-05 08:34:00,76.0,69.7,30.17,SE,129,3.0,8.0,81,0.00,,,0.01,Wunderground v.1.15,2013-07-05 12:34:00,
2013-07-05 08:39:00,75.9,69.3,30.17,ESE,102,4.0,8.0,80,0.00,,,0.01,Wunderground v.1.15,2013-07-05 12:39:00,
2013-07-05 08:45:00,75.6,69.4,30.17,ESE,121,5.0,8.0,81,0.00,,,0.01,Wunderground v.1.15,2013-07-05 12:45:00,
2013-07-05 08:50:00,75.6,69.4,30.17,ESE,105,5.0,8.0,81,0.00,,,0.01,Wunderground v.1.15,2013-07-05 12:50:00,
2013-07-05 08:56:00,75.4,69.2,30.17,South,171,5.0,8.0,81,0.00,,,0.01,Wunderground v.1.15,2013-07-05 12:56:00,
2013-07-05 09:02:00,75.5,69.6,30.17,ESE,102,6.0,8.0,82,0.00,,,0.01,Wunderground v.1.15,2013-07-05 13:02:00,
2013-07-05 09:07:00,75.4,69.9,30.17,ESE,108,7.0,9.0,83,0.00,,,0.01,Wunderground v.1.15,2013-07-05 13:07:00,
2013-07-05 09:13:00,75.7,69.8,30.17,East,99,6.0,8.0,82,0.00,,,0.01,Wunderground v.1.15,2013-07-05 13:13:00,
2013-07-05 09:18:00,76.1,69.8,30.17,SSE,154,4.0,8.0,81,0.00,,,0.01,Wunderground v.1.15,2013-07-05 13:18:00,
2013-07-05 09:24:00,76.7,70.1,30.17,SSE,159,4.0,8.0,80,0.00,,,0.01,Wunderground v.1.15,2013-07-05 13:24:00,
2013-07-05 09:30:00,77.3,70.6,30.17,South,170,3.0,3.0,80,0.00,,,0.01,Wunderground v.1.15,2013-07-05 13:30:00,
2013-07-05 09:35:00,78.3,68.5,30.17,WSW,237,4.0,13.0,72,0.00,,,0.01,Wunderground v.1.15,2013-07-05 13:35:00,
2013-07-05 09:41:00,78.2,68.4,30.17,SW,231,7.0,8.0,72,0.00,,,0.01,Wunderground v.1.15,2013-07-05 13:41:00,
2013-07-05 09:46:00,78.4,68.2,30.17,South,189,7.0,10.0,71,0.00,,,0.01,Wunderground v.1.15,2013-07-05 13:46:00,
2013-07-05 09:53:00,78.8,68.2,30.16,West,266,7.0,8.0,70,0.00,,,0.01,Wunderground v.1.15,2013-07-05 13:53:00,
2013-07-05 09:59:00,79.8,69.1,30.16,WSW,237,5.0,8.0,70,0.00,,,0.01,Wunderground v.1.15,2013-07-05 13:59:00,
2013-07-05 10:04:00,79.9,69.2,30.17,WSW,256,5.0,8.0,70,0.00,,,0.01,Wunderground v.1.15,2013-07-05 14:04:00,
2013-07-05 10:10:00,79.7,69.0,30.17,WSW,240,6.0,6.0,70,0.00,,,0.01,Wunderground v.1.15,2013-07-05 14:10:00,
2013-07-05 10:15:00,80.3,70.0,30.17,SW,220,4.0,8.0,71,0.00,,,0.01,Wunderground v.1.15,2013-07-05 14:15:00,
2013-07-05 10:22:00,80.8,69.7,30.17,NW,317,3.0,8.0,69,0.00,,,0.01,Wunderground v.1.15,2013-07-05 14:22:00,
2013-07-05 10:28:00,80.2,69.5,30.17,NW,305,3.0,8.0,70,0.00,,,0.01,Wunderground v.1.15,2013-07-05 14:28:00,
2013-07-05 10:33:00,80.6,69.9,30.17,SSW,199,3.0,8.0,70,0.00,,,0.01,Wunderground v.1.15,2013-07-05 14:33:00,
2013-07-05 10:38:00,80.8,69.7,30.17,WSW,258,2.0,8.0,69,0.00,,,0.01,Wunderground v.1.15,2013-07-05 14:38:00,
2013-07-05 10:43:00,80.5,69.4,30.17,SW,224,3.0,8.0,69,0.00,,,0.01,Wunderground v.1.15,2013-07-05 14:43:00,
2013-07-05 10:50:00,79.4,69.2,30.17,SW,224,4.0,8.0,71,0.00,,,0.01,Wunderground v.1.15,2013-07-05 14:50:00,
2013-07-05 10:55:00,79.7,69.0,30.17,WSW,249,3.0,8.0,70,0.00,,,0.01,Wunderground v.1.15,2013-07-05 14:55:00,
2013-07-05 11:01:00,80.0,68.9,30.17,SW,228,4.0,6.0,69,0.00,,,0.01,Wunderground v.1.15,2013-07-05 15:01:00,
2013-07-05 11:07:00,80.8,69.2,30.17,SW,231,4.0,8.0,68,0.00,,,0.01,Wunderground v.1.15,2013-07-05 15:07:00,
2013-07-05 11:13:00,81.1,69.1,30.17,WSW,248,3.0,8.0,67,0.00,,,0.01,Wunderground v.1.15,2013-07-05 15:13:00,
2013-07-05 11:18:00,80.7,69.2,30.17,South,174,3.0,8.0,68,0.00,,,0.01,Wunderground v.1.15,2013-07-05 15:18:00,
2013-07-05 11:26:00,80.3,69.2,30.17,South,188,4.0,8.0,69,0.00,,,0.01,Wunderground v.1.15,2013-07-05 15:26:00,
2013-07-05 11:32:00,80.3,68.8,30.17,South,170,4.0,9.0,68,0.00,,,0.01,Wunderground v.1.15,2013-07-05 15:32:00,
2013-07-05 11:38:00,81.2,68.8,30.17,SSW,210,4.0,9.0,66,0.00,,,0.01,Wunderground v.1.15,2013-07-05 15:38:00,
2013-07-05 11:43:00,80.9,68.0,30.17,WSW,242,6.0,8.0,65,0.00,,,0.01,Wunderground v.1.15,2013-07-05 15:43:00,
2013-07-05 11:49:00,81.7,68.8,30.17,SW,232,6.0,8.0,65,0.00,,,0.01,Wunderground v.1.15,2013-07-05 15:49:00,
2013-07-05 11:53:00,82.2,68.8,30.17,SW,215,4.0,8.0,64,0.00,,,0.01,Wunderground v.1.15,2013-07-05 15:53:00,
2013-07-05 11:58:00,81.9,68.1,30.17,South,172,4.0,8.0,63,0.00,,,0.01,Wunderground v.1.15,2013-07-05 15:58:00,
2013-07-05 12:04:00,81.5,67.7,30.17,SW,226,4.0,8.0,63,0.00,,,0.01,Wunderground v.1.15,2013-07-05 16:04:00,
2013-07-05 12:10:00,81.9,69.0,30.17,NW,324,3.0,3.0,65,0.00,,,0.01,Wunderground v.1.15,2013-07-05 16:10:00,
2013-07-05 12:11:00,82.1,69.2,30.17,West,281,3.0,8.0,65,0.00,,,0.01,Wunderground v.1.15,2013-07-05 16:11:00,
2013-07-05 12:17:00,82.6,68.3,30.17,SW,227,3.0,8.0,62,0.00,,,0.01,Wunderground v.1.15,2013-07-05 16:17:00,
2013-07-05 12:22:00,83.0,68.2,30.17,SW,223,5.0,9.0,61,0.00,,,0.01,Wunderground v.1.15,2013-07-05 16:22:00,
2013-07-05 12:28:00,83.0,67.7,30.16,South,171,6.0,9.0,60,0.00,,,0.01,Wunderground v.1.15,2013-07-05 16:28:00,
2013-07-05 12:33:00,83.9,69.0,30.16,SE,137,5.0,9.0,61,0.00,,,0.01,Wunderground v.1.15,2013-07-05 16:33:00,
2013-07-05 12:38:00,83.7,67.8,30.16,SSW,207,5.0,10.0,59,0.00,,,0.01,Wunderground v.1.15,2013-07-05 16:38:00,
2013-07-05 12:44:00,83.6,68.7,30.16,SW,231,6.0,10.0,61,0.00,,,0.01,Wunderground v.1.15,2013-07-05 16:44:00,
2013-07-05 12:49:00,83.1,68.3,30.16,SSE,153,7.0,10.0,61,0.00,,,0.01,Wunderground v.1.15,2013-07-05 16:49:00,
2013-07-05 12:55:00,83.2,68.3,30.16,SW,229,7.0,10.0,61,0.00,,,0.01,Wunderground v.1.15,2013-07-05 16:55:00,
2013-07-05 13:00:00,83.2,67.9,30.16,SSE,147,7.0,8.0,60,0.00,,,0.01,Wunderground v.1.15,2013-07-05 17:00:00,
2013-07-05 13:06:00,83.8,68.4,30.16,South,171,7.0,10.0,60,0.00,,,0.01,Wunderground v.1.15,2013-07-05 17:06:00,
2013-07-05 13:12:00,84.3,68.4,30.15,SSW,194,5.0,8.0,59,0.00,,,0.01,Wunderground v.1.15,2013-07-05 17:12:00,
2013-07-05 13:14:00,84.1,67.7,30.15,SW,218,5.0,8.0,58,0.00,,,0.01,Wunderground v.1.15,2013-07-05 17:14:00,
2013-07-05 13:19:00,83.9,67.5,30.15,WSW,257,5.0,8.0,58,0.00,,,0.01,Wunderground v.1.15,2013-07-05 17:19:00,
2013-07-05 13:24:00,83.8,68.9,30.15,SW,215,5.0,8.0,61,0.00,,,0.01,Wunderground v.1.15,2013-07-05 17:24:00,
2013-07-05 13:29:00,84.2,68.8,30.15,SSE,164,5.0,8.0,60,0.00,,,0.01,Wunderground v.1.15,2013-07-05 17:29:00,
2013-07-05 13:34:00,84.7,69.8,30.15,SW,234,4.0,8.0,61,0.00,,,0.01,Wunderground v.1.15,2013-07-05 17:34:00,
2013-07-05 13:40:00,84.6,69.2,30.15,SSE,149,6.0,11.0,60,0.00,,,0.01,Wunderground v.1.15,2013-07-05 17:40:00,
2013-07-05 13:45:00,84.2,68.3,30.15,SSW,208,7.0,11.0,59,0.00,,,0.01,Wunderground v.1.15,2013-07-05 17:45:00,
2013-07-05 13:50:00,83.9,68.0,30.15,SSE,162,7.0,8.0,59,0.00,,,0.01,Wunderground v.1.15,2013-07-05 17:50:00,
2013-07-05 13:55:00,83.9,68.5,30.14,SSW,208,7.0,10.0,60,0.00,,,0.01,Wunderground v.1.15,2013-07-05 17:55:00,
2013-07-05 14:00:00,84.2,67.8,30.15,SW,227,7.0,11.0,58,0.00,,,0.01,Wunderground v.1.15,2013-07-05 18:00:00,
2013-07-05 14:06:00,84.4,68.5,30.14,South,189,7.0,12.0,59,0.00,,,0.01,Wunderground v.1.15,2013-07-05 18:06:00,
2013-07-05 14:11:00,84.8,66.8,30.14,SW,228,7.0,8.0,55,0.00,,,0.01,Wunderground v.1.15,2013-07-05 18:11:00,
2013-07-05 14:16:00,84.8,68.4,30.14,SSE,166,7.0,8.0,58,0.00,,,0.01,Wunderground v.1.15,2013-07-05 18:16:00,
2013-07-05 14:21:00,85.1,68.2,30.13,South,170,6.0,8.0,57,0.00,,,0.01,Wunderground v.1.15,2013-07-05 18:21:00,
2013-07-05 14:26:00,84.6,68.2,30.13,South,185,6.0,9.0,58,0.00,,,0.01,Wunderground v.1.15,2013-07-05 18:26:00,
2013-07-05 14:32:00,83.8,68.4,30.13,SW,225,5.0,8.0,60,0.00,,,0.01,Wunderground v.1.15,2013-07-05 18:32:00,
2013-07-05 14:38:00,83.6,68.7,30.14,SW,223,4.0,8.0,61,0.00,,,0.01,Wunderground v.1.15,2013-07-05 18:38:00,
2013-07-05 14:43:00,83.6,68.7,30.13,South,170,4.0,8.0,61,0.00,,,0.01,Wunderground v.1.15,2013-07-05 18:43:00,
2013-07-05 14:49:00,83.6,70.1,30.13,SSE,147,5.0,8.0,64,0.00,,,0.01,Wunderground v.1.15,2013-07-05 18:49:00,
2013-07-05 14:55:00,83.1,70.1,30.13,SE,131,6.0,10.0,65,0.00,,,0.01,Wunderground v.1.15,2013-07-05 18:55:00,
2013-07-05 15:00:00,83.7,69.8,30.13,SSE,164,7.0,7.0,63,0.00,,,0.01,Wunderground v.1.15,2013-07-05 19:00:00,
2013-07-05 15:05:00,84.1,70.1,30.13,SW,233,7.0,8.0,63,0.00,,,0.01,Wunderground v.1.15,2013-07-05 19:05:00,
2013-07-05 15:10:00,84.5,69.6,30.13,SSE,164,6.0,6.0,61,0.00,,,0.01,Wunderground v.1.15,2013-07-05 19:10:00,
2013-07-05 15:16:00,84.5,70.0,30.13,South,172,6.0,11.0,62,0.00,,,0.01,Wunderground v.1.15,2013-07-05 19:16:00,
2013-07-05 15:21:00,84.7,69.3,30.13,SW,235,6.0,11.0,60,0.00,,,0.01,Wunderground v.1.15,2013-07-05 19:21:00,
2013-07-05 15:26:00,84.3,69.9,30.13,SSE,165,6.0,11.0,62,0.00,,,0.01,Wunderground v.1.15,2013-07-05 19:26:00,
2013-07-05 15:31:00,83.3,70.8,30.12,SSE,164,7.0,9.0,66,0.00,,,0.01,Wunderground v.1.15,2013-07-05 19:31:00,
2013-07-05 15:37:00,83.1,70.6,30.12,SE,124,7.0,9.0,66,0.00,,,0.01,Wunderground v.1.15,2013-07-05 19:37:00,
2013-07-05 15:42:00,83.2,69.8,30.12,SSE,151,6.0,10.0,64,0.00,,,0.01,Wunderground v.1.15,2013-07-05 19:42:00,
2013-07-05 15:48:00,83.5,70.5,30.12,SSE,168,6.0,10.0,65,0.00,,,0.01,Wunderground v.1.15,2013-07-05 19:48:00,
2013-07-05 15:53:00,83.4,69.0,30.11,SSE,152,7.0,11.0,62,0.00,,,0.01,Wunderground v.1.15,2013-07-05 19:53:00,
2013-07-05 15:59:00,83.7,68.8,30.11,SSW,208,7.0,11.0,61,0.00,,,0.01,Wunderground v.1.15,2013-07-05 19:59:00,
2013-07-05 16:04:00,83.3,69.4,30.11,South,185,7.0,11.0,63,0.00,,,0.01,Wunderground v.1.15,2013-07-05 20:04:00,
2013-07-05 16:10:00,83.7,69.8,30.11,ESE,102,7.0,7.0,63,0.00,,,0.01,Wunderground v.1.15,2013-07-05 20:10:00,
2013-07-05 16:16:00,83.7,69.8,30.10,SSE,168,7.0,14.0,63,0.00,,,0.01,Wunderground v.1.15,2013-07-05 20:16:00,
2013-07-05 16:22:00,83.7,70.2,30.10,South,181,6.0,8.0,64,0.00,,,0.01,Wunderground v.1.15,2013-07-05 20:22:00,
2013-07-05 16:27:00,83.4,69.9,30.10,ESE,111,6.0,9.0,64,0.00,,,0.01,Wunderground v.1.15,2013-07-05 20:27:00,
2013-07-05 16:32:00,83.5,69.6,30.10,WSW,239,7.0,10.0,63,0.00,,,0.01,Wunderground v.1.15,2013-07-05 20:32:00,
2013-07-05 16:37:00,84.1,70.6,30.09,SSW,202,6.0,10.0,64,0.00,,,0.01,Wunderground v.1.15,2013-07-05 20:37:00,
2013-07-05 16:42:00,84.4,70.4,30.10,SSE,155,6.0,10.0,63,0.00,,,0.01,Wunderground v.1.15,2013-07-05 20:42:00,
2013-07-05 16:48:00,84.0,71.0,30.10,SE,145,6.0,11.0,65,0.00,,,0.01,Wunderground v.1.15,2013-07-05 20:48:00,
2013-07-05 16:54:00,83.8,69.9,30.10,ESE,120,6.0,9.0,63,0.00,,,0.01,Wunderground v.1.15,2013-07-05 20:54:00,
2013-07-05 16:59:00,84.0,69.6,30.10,SSE,162,7.0,9.0,62,0.00,,,0.01,Wunderground v.1.15,2013-07-05 20:59:00,
2013-07-05 17:04:00,84.2,69.8,30.09,SW,227,7.0,8.0,62,0.00,,,0.01,Wunderground v.1.15,2013-07-05 21:04:00,
2013-07-05 17:10:00,83.9,70.0,30.10,South,177,6.0,6.0,63,0.00,,,0.01,Wunderground v.1.15,2013-07-05 21:10:00,
2013-07-05 17:16:00,83.3,70.3,30.10,ESE,107,4.0,8.0,65,0.00,,,0.01,Wunderground v.1.15,2013-07-05 21:16:00,
2013-07-05 17:21:00,82.6,70.5,30.10,SE,125,4.0,8.0,67,0.00,,,0.01,Wunderground v.1.15,2013-07-05 21:21:00,
2013-07-05 17:27:00,82.0,70.4,30.09,SSE,158,5.0,9.0,68,0.00,,,0.01,Wunderground v.1.15,2013-07-05 21:27:00,
2013-07-05 17:33:00,81.6,70.4,30.09,SSE,166,6.0,8.0,69,0.00,,,0.01,Wunderground v.1.15,2013-07-05 21:33:00,
2013-07-05 17:38:00,81.8,70.6,30.09,SSE,149,6.0,9.0,69,0.00,,,0.01,Wunderground v.1.15,2013-07-05 21:38:00,
2013-07-05 17:43:00,82.2,70.6,30.09,SE,140,5.0,8.0,68,0.00,,,0.01,Wunderground v.1.15,2013-07-05 21:43:00,
2013-07-05 17:49:00,81.8,70.6,30.09,SSE,151,6.0,9.0,69,0.00,,,0.01,Wunderground v.1.15,2013-07-05 21:49:00,
2013-07-05 17:55:00,81.7,70.1,30.09,SE,144,5.0,8.0,68,0.00,,,0.01,Wunderground v.1.15,2013-07-05 21:55:00,
2013-07-05 18:01:00,81.7,70.1,30.09,SSE,164,5.0,8.0,68,0.00,,,0.01,Wunderground v.1.15,2013-07-05 22:01:00,
2013-07-05 18:07:00,81.9,69.9,30.09,SW,233,4.0,8.0,67,0.00,,,0.01,Wunderground v.1.15,2013-07-05 22:07:00,
2013-07-05 18:08:00,82.0,70.0,30.09,SSW,202,4.0,8.0,67,0.00,,,0.01,Wunderground v.1.15,2013-07-05 22:08:00,
2013-07-05 18:13:00,82.5,70.4,30.09,SW,224,5.0,8.0,67,0.00,,,0.01,Wunderground v.1.15,2013-07-05 22:13:00,
2013-07-05 18:19:00,82.9,69.9,30.08,SW,228,5.0,13.0,65,0.00,,,0.01,Wunderground v.1.15,2013-07-05 22:19:00,
2013-07-05 18:24:00,82.8,70.3,30.08,SSW,206,6.0,8.0,66,0.00,,,0.01,Wunderground v.1.15,2013-07-05 22:24:00,
2013-07-05 18:30:00,82.9,70.4,30.08,SE,127,6.0,6.0,66,0.00,,,0.01,Wunderground v.1.15,2013-07-05 22:30:00,
2013-07-05 18:35:00,82.6,70.1,30.09,SSE,164,7.0,8.0,66,0.00,,,0.01,Wunderground v.1.15,2013-07-05 22:35:00,
2013-07-05 18:41:00,82.1,70.1,30.08,SE,129,7.0,8.0,67,0.00,,,0.01,Wunderground v.1.15,2013-07-05 22:41:00,
2013-07-05 18:46:00,81.7,70.1,30.08,South,189,7.0,10.0,68,0.00,,,0.01,Wunderground v.1.15,2013-07-05 22:46:00,
2013-07-05 18:52:00,81.4,69.8,30.08,SW,218,6.0,8.0,68,0.00,,,0.01,Wunderground v.1.15,2013-07-05 22:52:00,
2013-07-05 18:57:00,81.2,69.6,30.08,SSE,163,6.0,8.0,68,0.00,,,0.01,Wunderground v.1.15,2013-07-05 22:57:00,
2013-07-05 19:03:00,81.1,69.5,30.09,SSE,156,5.0,8.0,68,0.00,,,0.01,Wunderground v.1.15,2013-07-05 23:03:00,
2013-07-05 19:08:00,81.0,69.4,30.09,SSE,159,5.0,9.0,68,0.00,,,0.01,Wunderground v.1.15,2013-07-05 23:08:00,
2013-07-05 19:14:00,80.9,69.8,30.09,SSE,168,4.0,8.0,69,0.00,,,0.01,Wunderground v.1.15,2013-07-05 23:14:00,
2013-07-05 19:20:00,81.1,70.0,30.09,South,177,3.0,8.0,69,0.00,,,0.01,Wunderground v.1.15,2013-07-05 23:20:00,
2013-07-05 19:26:00,81.0,69.9,30.09,SW,230,3.0,8.0,69,0.00,,,0.01,Wunderground v.1.15,2013-07-05 23:26:00,
2013-07-05 19:31:00,80.9,70.2,30.09,SW,224,3.0,8.0,70,0.00,,,0.01,Wunderground v.1.15,2013-07-05 23:31:00,
2013-07-05 19:37:00,81.1,70.4,30.09,SW,228,3.0,8.0,70,0.00,,,0.01,Wunderground v.1.15,2013-07-05 23:37:00,
2013-07-05 19:42:00,80.9,70.2,30.09,SSW,210,4.0,8.0,70,0.00,,,0.01,Wunderground v.1.15,2013-07-05 23:42:00,
2013-07-05 19:47:00,80.7,70.4,30.09,SW,225,4.0,8.0,71,0.00,,,0.01,Wunderground v.1.15,2013-07-05 23:47:00,
2013-07-05 19:53:00,80.7,70.4,30.09,SSE,154,3.0,8.0,71,0.00,,,0.01,Wunderground v.1.15,2013-07-05 23:53:00,
2013-07-05 19:58:00,80.6,70.3,30.09,WSW,241,3.0,8.0,71,0.00,,,0.01,Wunderground v.1.15,2013-07-05 23:58:00,
2013-07-05 20:03:00,80.3,69.6,30.09,WSW,241,5.0,8.0,70,0.00,,,0.01,Wunderground v.1.15,2013-07-06 00:03:00,
2013-07-05 20:09:00,80.1,69.4,30.09,SSW,211,5.0,8.0,70,0.00,,,0.01,Wunderground v.1.15,2013-07-06 00:09:00,
2013-07-05 20:14:00,79.9,69.7,30.10,SSW,200,4.0,8.0,71,0.00,,,0.01,Wunderground v.1.15,2013-07-06 00:14:00,
2013-07-05 20:19:00,79.8,70.0,30.10,SSE,168,4.0,8.0,72,0.00,,,0.01,Wunderground v.1.15,2013-07-06 00:19:00,
2013-07-05 20:25:00,79.7,69.5,30.10,South,184,2.0,8.0,71,0.00,,,0.01,Wunderground v.1.15,2013-07-06 00:25:00,
2013-07-05 20:30:00,79.5,69.7,30.09,South,179,2.0,2.0,72,0.00,,,0.01,Wunderground v.1.15,2013-07-06 00:30:00,
2013-07-05 20:36:00,79.4,69.6,30.10,South,178,1.0,8.0,72,0.00,,,0.01,Wunderground v.1.15,2013-07-06 00:36:00,
2013-07-05 20:41:00,79.2,69.4,30.10,South,179,1.0,8.0,72,0.00,,,0.01,Wunderground v.1.15,2013-07-06 00:41:00,
2013-07-05 20:47:00,79.1,69.3,30.10,SSW,206,2.0,8.0,72,0.00,,,0.01,Wunderground v.1.15,2013-07-06 00:47:00,
2013-07-05 20:51:00,79.0,69.2,30.10,SSW,199,2.0,8.0,72,0.00,,,0.01,Wunderground v.1.15,2013-07-06 00:51:00,
2013-07-05 20:56:00,78.8,69.4,30.10,South,173,2.0,8.0,73,0.00,,,0.01,Wunderground v.1.15,2013-07-06 00:56:00,
2013-07-05 21:01:00,78.7,69.3,30.10,South,184,2.0,8.0,73,0.00,,,0.01,Wunderground v.1.15,2013-07-06 01:01:00,
2013-07-05 21:07:00,78.5,69.1,30.10,South,190,2.0,8.0,73,0.00,,,0.01,Wunderground v.1.15,2013-07-06 01:07:00,
2013-07-05 21:13:00,78.4,69.0,30.10,SSW,206,2.0,8.0,73,0.00,,,0.01,Wunderground v.1.15,2013-07-06 01:13:00,
2013-07-05 21:14:00,78.4,69.0,30.10,SSW,206,2.0,8.0,73,0.00,,,0.01,Wunderground v.1.15,2013-07-06 01:14:00,
2013-07-05 21:19:00,78.3,68.9,30.11,SW,221,1.0,8.0,73,0.00,,,0.01,Wunderground v.1.15,2013-07-06 01:19:00,
2013-07-05 21:24:00,78.2,69.2,30.11,South,172,1.0,8.0,74,0.00,,,0.01,Wunderground v.1.15,2013-07-06 01:24:00,
2013-07-05 21:30:00,78.0,69.0,30.11,South,172,1.0,8.0,74,0.00,,,0.01,Wunderground v.1.15,2013-07-06 01:30:00,
2013-07-05 21:36:00,77.9,68.9,30.11,South,172,1.0,8.0,74,0.00,,,0.01,Wunderground v.1.15,2013-07-06 01:36:00,
2013-07-05 21:41:00,77.7,68.7,30.11,South,172,0.0,8.0,74,0.00,,,0.01,Wunderground v.1.15,2013-07-06 01:41:00,
2013-07-05 21:47:00,77.5,68.9,30.11,South,172,0.0,8.0,75,0.00,,,0.01,Wunderground v.1.15,2013-07-06 01:47:00,
2013-07-05 21:52:00,77.4,68.9,30.12,South,172,0.0,8.0,75,0.00,,,0.01,Wunderground v.1.15,2013-07-06 01:52:00,
2013-07-05 21:53:00,77.3,68.8,30.12,South,172,0.0,8.0,75,0.00,,,0.01,Wunderground v.1.15,2013-07-06 01:53:00,
2013-07-05 21:59:00,77.3,69.1,30.12,South,172,0.0,8.0,76,0.00,,,0.01,Wunderground v.1.15,2013-07-06 01:59:00,
2013-07-05 22:05:00,77.1,68.9,30.12,South,172,0.0,8.0,76,0.00,,,0.01,Wunderground v.1.15,2013-07-06 02:05:00,
2013-07-05 22:11:00,77.0,68.9,30.12,South,172,0.0,8.0,76,0.00,,,0.01,Wunderground v.1.15,2013-07-06 02:11:00,
2013-07-05 22:17:00,76.9,69.1,30.12,South,172,1.0,8.0,77,0.00,,,0.01,Wunderground v.1.15,2013-07-06 02:17:00,
2013-07-05 22:23:00,76.8,69.0,30.12,South,172,1.0,8.0,77,0.00,,,0.01,Wunderground v.1.15,2013-07-06 02:23:00,
2013-07-05 22:29:00,76.7,69.3,30.12,SSE,167,1.0,8.0,78,0.00,,,0.01,Wunderground v.1.15,2013-07-06 02:29:00,
2013-07-05 22:35:00,76.5,69.1,30.12,SSE,167,1.0,8.0,78,0.00,,,0.01,Wunderground v.1.15,2013-07-06 02:35:00,
2013-07-05 22:41:00,76.1,69.1,30.12,SSE,167,1.0,8.0,79,0.00,,,0.01,Wunderground v.1.15,2013-07-06 02:41:00,
2013-07-05 22:47:00,75.8,69.2,30.12,SSE,167,0.0,8.0,80,0.00,,,0.01,Wunderground v.1.15,2013-07-06 02:47:00,
2013-07-05 22:52:00,75.4,69.2,30.12,SSE,167,0.0,8.0,81,0.00,,,0.01,Wunderground v.1.15,2013-07-06 02:52:00,
2013-07-05 22:58:00,74.9,69.0,30.12,SSE,167,0.0,8.0,82,0.00,,,0.01,Wunderground v.1.15,2013-07-06 02:58:00,
2013-07-05 23:04:00,74.6,69.1,30.12,SSE,167,0.0,8.0,83,0.00,,,0.01,Wunderground v.1.15,2013-07-06 03:04:00,
2013-07-05 23:10:00,74.5,69.0,30.13,SSE,167,0.0,8.0,83,0.00,,,0.01,Wunderground v.1.15,2013-07-06 03:10:00,
2013-07-05 23:16:00,74.4,68.9,30.13,SSE,167,0.0,8.0,83,0.00,,,0.01,Wunderground v.1.15,2013-07-06 03:16:00,
2013-07-05 23:21:00,74.3,69.1,30.13,SSE,167,0.0,8.0,84,0.00,,,0.01,Wunderground v.1.15,2013-07-06 03:21:00,
2013-07-05 23:27:00,74.2,69.1,30.13,SSE,167,0.0,8.0,84,0.00,,,0.01,Wunderground v.1.15,2013-07-06 03:27:00,
2013-07-05 23:29:00,74.1,69.0,30.13,SSE,167,1.0,8.0,84,0.00,,,0.01,Wunderground v.1.15,2013-07-06 03:29:00,
2013-07-05 23:35:00,73.9,68.8,30.13,SSE,167,1.0,8.0,84,0.00,,,0.01,Wunderground v.1.15,2013-07-06 03:35:00,
2013-07-05 23:40:00,73.7,68.9,30.13,SSE,167,1.0,1.0,85,0.00,,,0.01,Wunderground v.1.15,2013-07-06 03:40:00,
2013-07-05 23:46:00,73.5,68.7,30.13,SSE,167,0.0,8.0,85,0.00,,,0.01,Wunderground v.1.15,2013-07-06 03:46:00,
2013-07-05 23:52:00,73.4,68.6,30.13,SSE,167,0.0,8.0,85,0.00,,,0.01,Wunderground v.1.15,2013-07-06 03:52:00,
2013-07-05 23:58:00,73.4,68.6,30.13,SSE,167,0.0,8.0,85,0.00,,,0.01,Wunderground v.1.15,2013-07-06 03:58:00,